Ouarzazate, Morocco

9:55 AM WEST on April 26, 2017 (GMT +0100)
Ouarzazate

Weather History for GMMZ - October, 2013

Change the Weather History Date:

Tuesday, October 15, 2013

  Actual Average Record
Temperature  
Mean Temperature 73 °F -  
Max Temperature 87 °F 74 °F - ()
Min Temperature 59 °F 49 °F - ()
Cooling Degree Days 8    
Growing Degree Days 23 (Base 50)    
Moisture  
Dew Point 28 °F    
Average Humidity 19    
Maximum Humidity 34    
Minimum Humidity 5    
Precipitation  
Precipitation 0.00 in 0.02 in - ()
Sea Level Pressure  
Sea Level Pressure 30.21 in    
Wind  
Wind Speed 1 mph ()    
Max Wind Speed 4 mph    
Max Gust Speed -    
Visibility 12.0 miles    
Events      
T = Trace of Precipitation, MM = Missing Value Source: Averaged Metar Reports

Daily Weather History Graph

Daily Weather History Graph

Search for Another Location

Airport or City:

Trip Planner

Search our weather history database for the weather conditions in past years. The results will help you decide how hot, cold, wet, or windy it might be!

Date:

Astronomy

Oct. 15, 2013 Rise Set
Actual Time 7:30 AM WEST 6:55 PM WEST
Civil Twilight 7:05 AM WEST 7:20 PM WEST
Nautical Twilight 6:37 AM WEST 7:48 PM WEST
Astronomical Twilight 6:09 AM WEST 8:16 PM WEST
Moon 4:41 PM WEST (10/15) 3:51 AM WEST (10/15)
Length of Visible Light 12h 14m
Length of Day
11h 25m
Waxing Gibbous, 86% of the Moon is Illuminated
Oct 15
Waxing Gibbous
Oct 19
Full
Oct 27
Last Quarter
Nov 3
New
Nov 10
First Quarter

Hourly Weather History & Observations

Time (WEST) Temp. Dew Point Humidity Pressure Visibility Wind Dir Wind Speed Gust Speed Precip Events Conditions
12:00 AM 71.6 °F 32.0 °F 23% 30.18 in - Variable 1.2 mph - N/A   Clear
1:00 AM 68 °F 34 °F 17%  in 12 mi WNW 2.3 mph - -  
1:00 AM 68.0 °F 33.8 °F 28% 30.18 in - Variable 2.3 mph - N/A   Clear
2:00 AM 66.2 °F 32.0 °F 28% 30.18 in - Calm Calm - N/A   Clear
3:00 AM 64.4 °F 30.2 °F 28% 30.18 in - Calm Calm - N/A   Clear
4:00 AM 61 °F 31 °F 20%  in 12 mi Calm Calm - -  
4:00 AM 62.6 °F 30.2 °F 30% 30.18 in - Calm Calm - N/A   Clear
5:00 AM 60.8 °F 30.2 °F 31% 30.18 in - Variable 1.2 mph - N/A   Clear
6:00 AM 60.8 °F 30.2 °F 31% 30.18 in - Variable 2.3 mph - N/A   Clear
7:00 AM 59.0 °F 30.2 °F 34% 30.21 in - Variable 2.3 mph - N/A   Clear
8:00 AM 59.0 °F 30.2 °F 34% 30.24 in - West 3.5 mph - N/A   Clear
9:00 AM 62.6 °F 30.2 °F 30% 30.24 in - Variable 2.3 mph - N/A   Clear
10:00 AM 68 °F 31 °F 15%  in 12 mi Calm Calm - -  
10:00 AM 68.0 °F 30.2 °F 24% 30.27 in - Calm Calm - N/A   Clear
11:00 AM 75.2 °F 28.4 °F 18% 30.27 in - Variable 1.2 mph - N/A   Clear
12:00 PM 78.8 °F 26.6 °F 15% 30.27 in - Calm Calm - N/A   Clear
1:00 PM 82 °F 28 °F 7%  in 12 mi Calm Calm - -  
1:00 PM 82.4 °F 28.4 °F 14% 30.24 in - Calm Calm - N/A   Clear
2:00 PM 84.2 °F 26.6 °F 12% 30.21 in - Variable 2.3 mph - N/A   Clear
3:00 PM 86.0 °F 24.8 °F 11% 30.18 in - Variable 2.3 mph - N/A   Clear
4:00 PM 87 °F 26 °F 5%  in 12 mi WSW 1.2 mph - -   Clear
4:00 PM 87.8 °F 26.6 °F 11% 30.18 in - Variable 1.2 mph - N/A   Clear
5:00 PM 86.0 °F 26.6 °F 12% 30.18 in - Variable 3.5 mph - N/A   Clear
7:00 PM 85 °F 25 °F 5%  in 12 mi WNW 2.3 mph - -   Clear
7:00 PM 86.0 °F 24.8 °F 11% 30.15 in - Variable 2.3 mph - N/A   Clear
8:00 PM 82.4 °F 24.8 °F 12% 30.18 in - NW 3.5 mph - N/A   Clear
9:00 PM 77.0 °F 23.0 °F 13% 30.21 in - Variable 2.3 mph - N/A   Clear
10:00 PM 76 °F 26 °F 8%  in 12 mi Calm Calm - -   Clear
10:00 PM 77.0 °F 24.8 °F 14% 30.21 in - Calm Calm - N/A   Clear
11:00 PM 75.2 °F 24.8 °F 15% 30.24 in - Calm Calm - N/A   Clear